Terminal Aerodrome Forecast
Issued by NWS

Home | Current Version | Previous Version | Text Only | Print | Product List | Glossary On
Versions: 1 2 3 4 5 6 7 8 9 10 11 12 13 14 15 16 17 18 19 20 21 22 23 24 25 26 27 28 29
000
FTUS43 KSGF 152300
TAFJLN
TAF
KJLN 152320Z 1600/1624 35012KT P6SM BKN045
     FM160200 01006KT P6SM BKN025
     FM161000 02006KT P6SM OVC007
     FM161600 07005KT P6SM SCT250=

USA.gov is the U.S. government's official web portal to all federal, state and local government web resources and services.